Tracking 28790 objects as of 18-Apr-2024
HD Live streaming from Space Station
objects crossing your sky now

COSMOS 2251 DEB

Track COSMOS 2251 DEB now!
10-day predictions


NORAD ID: 36071
Int'l Code: 1993-036AYJ
Perigee: 652.9 km
Apogee: 686.2 km
Inclination: 74.0 °
Period: 98.0 minutes
Semi major axis: 7040 km
RCS: 0.009 m2 (small)
Launch date: June 16, 1993
Source: Commonwealth of Independent States (former USSR) (CIS)
Launch site: PLESETSK MISSILE AND SPACE COMPLEX (PKMTR)

Note: This is SATELLITE DEBRIS
Your satellite tracking list
Your tracking list is empty




NASA's NSSDC Master Catalog

Two Line Element Set (TLE):
1 36071U 93036AYJ 24107.78164480  .00042070  00000-0  70127-2 0  9992
2 36071  74.0280 148.8354 0023709 335.9046  24.1013 14.69581105559789
Source of the keplerian elements: AFSPC